• In Kazakhstan
  • List of Countries
  • For 7 days
  • Water Temperature
  • Satellite Maps
  • Weather Map
  • News
  • Weather Widgets
  • user-avatar
    Login

    Hourly Weather Quito

    Today, 19 November, Monday

    Time Temperature Precipitation Wind Pressure Humidity
    00:00 +18°C° 0.6 mm 2 mps 622 mmHg 91%
    01:00 +18°C° 0 mm 1 mps 622 mmHg 90%
    02:00 +18°C° 0 mm 1 mps 622 mmHg 90%
    03:00 +18°C° 0 mm 1 mps 622 mmHg 89%
    04:00 +16°C° 0 mm 1 mps 622 mmHg 89%
    05:00 +19°C° 0 mm 1 mps 622 mmHg 85%
    06:00 +18°C° 0 mm 0 mps 623 mmHg 81%
    07:00 +19°C° 0 mm 0 mps 624 mmHg 78%
    08:00 +23°C° 0 mm 1 mps 624 mmHg 68%
    09:00 +26°C° 0 mm 1 mps 625 mmHg 58%
    10:00 +28°C° 0 mm 2 mps 625 mmHg 48%
    11:00 +28°C° 0 mm 2 mps 625 mmHg 45%
    12:00 +29°C° 0 mm 3 mps 624 mmHg 43%
    13:00 +29°C° 0 mm 3 mps 624 mmHg 40%
    14:00 +28°C° 0 mm 3 mps 623 mmHg 43%
    15:00 +28°C° 0 mm 2 mps 623 mmHg 45%
    16:00 +27°C° 0 mm 2 mps 622 mmHg 48%
    17:00 +25°C° 0 mm 2 mps 622 mmHg 54%
    18:00 +24°C° 0 mm 2 mps 622 mmHg 59%
    19:00 +22°C° 0 mm 1 mps 622 mmHg 65%
    20:00 +21°C° 0.2 mm 1 mps 622 mmHg 68%
    21:00 +20°C° 0.2 mm 1 mps 622 mmHg 71%
    22:00 +20°C° 0.2 mm 1 mps 623 mmHg 74%
    23:00 +19°C° 0.2 mm 1 mps 623 mmHg 77%

    Tomorrow, 20 November, Tuesday

    Time Temperature Precipitation Wind Pressure Humidity
    00:00 +19°C° 0.2 mm 1 mps 622 mmHg 80%
    01:00 +19°C° 0.2 mm 1 mps 622 mmHg 83%
    02:00 +18°C° 0.4 mm 1 mps 622 mmHg 85%
    03:00 +18°C° 0.4 mm 1 mps 622 mmHg 87%
    04:00 +18°C° 0.4 mm 1 mps 621 mmHg 90%
    05:00 +19°C° 0 mm 1 mps 622 mmHg 87%
    06:00 +20°C° 0 mm 1 mps 623 mmHg 84%
    07:00 +21°C° 0 mm 1 mps 623 mmHg 81%
    08:00 +23°C° 0.2 mm 1 mps 624 mmHg 71%
    09:00 +26°C° 0.2 mm 1 mps 625 mmHg 60%
    10:00 +28°C° 0.2 mm 1 mps 626 mmHg 50%
    11:00 +28°C° 0.3 mm 1 mps 625 mmHg 49%
    12:00 +29°C° 0.3 mm 1 mps 624 mmHg 47%
    13:00 +29°C° 0.3 mm 1 mps 624 mmHg 46%
    14:00 +29°C° 0 mm 1 mps 623 mmHg 47%
    15:00 +28°C° 0 mm 1 mps 623 mmHg 48%
    16:00 +28°C° 0 mm 1 mps 623 mmHg 49%
    17:00 +26°C° 0.3 mm 1 mps 622 mmHg 57%
    18:00 +24°C° 0.3 mm 2 mps 622 mmHg 64%
    19:00 +21°C° 0.3 mm 2 mps 622 mmHg 72%
    20:00 +20°C° 1.2 mm 2 mps 622 mmHg 78%
    21:00 +19°C° 1.2 mm 2 mps 623 mmHg 84%
    22:00 +18°C° 1.2 mm 2 mps 623 mmHg 90%
    23:00 +18°C° 0.2 mm 2 mps 623 mmHg 91%

    Day after tomorrow, 21 November, Wednesday

    Time Temperature Precipitation Wind Pressure Humidity
    00:00 +17°C° 0.2 mm 2 mps 622 mmHg 92%
    01:00 +17°C° 0.2 mm 2 mps 622 mmHg 92%
    02:00 +17°C° 0.2 mm 2 mps 622 mmHg 93%
    03:00 +17°C° 0.2 mm 2 mps 621 mmHg 93%
    04:00 +16°C° 0.2 mm 2 mps 621 mmHg 93%
    05:00 +17°C° 0.3 mm 2 mps 622 mmHg 91%
    06:00 +18°C° 0.3 mm 2 mps 623 mmHg 88%
    07:00 +19°C° 0.3 mm 2 mps 623 mmHg 86%
    08:00 +22°C° 0.8 mm 1 mps 624 mmHg 79%
    09:00 +24°C° 0.8 mm 1 mps 624 mmHg 72%
    10:00 +25°C° 0.8 mm 1 mps 625 mmHg 65%
    11:00 +26°C° 1.4 mm 1 mps 624 mmHg 64%
    12:00 +26°C° 1.4 mm 2 mps 624 mmHg 64%
    13:00 +26°C° 1.4 mm 2 mps 623 mmHg 63%
    14:00 +26°C° 1.1 mm 2 mps 623 mmHg 64%
    15:00 +25°C° 1.1 mm 2 mps 622 mmHg 66%
    16:00 +25°C° 1.1 mm 1 mps 622 mmHg 67%
    17:00 +23°C° 0.3 mm 2 mps 622 mmHg 72%
    18:00 +21°C° 0.3 mm 2 mps 622 mmHg 78%
    19:00 +19°C° 0.3 mm 2 mps 622 mmHg 83%
    20:00 +19°C° 0.2 mm 2 mps 622 mmHg 84%
    21:00 +18°C° 0.2 mm 2 mps 623 mmHg 86%
    22:00 +19°C° 0.2 mm 1 mps 623 mmHg 87%
    23:00 +19°C° 0.1 mm 1 mps 622 mmHg 88%

    22 November, Thursday

    Time Temperature Precipitation Wind Pressure Humidity
    00:00 +18°C° 0.1 mm 1 mps 622 mmHg 90%
    01:00 +16°C° 0.1 mm 0 mps 621 mmHg 92%
    02:00 +16°C° 0 mm 0 mps 621 mmHg 92%
    03:00 +15°C° 0 mm 0 mps 621 mmHg 93%
    04:00 +15°C° 0 mm 0 mps 621 mmHg 94%
    05:00 +16°C° 0 mm 0 mps 622 mmHg 91%
    06:00 +17°C° 0 mm 0 mps 622 mmHg 87%
    07:00 +18°C° 0 mm 0 mps 623 mmHg 84%
    08:00 +20°C° 0.6 mm 0 mps 624 mmHg 77%
    09:00 +25°C° 0.6 mm 1 mps 624 mmHg 69%
    10:00 +27°C° 0.6 mm 1 mps 625 mmHg 61%
    11:00 +28°C° 1 mm 1 mps 624 mmHg 58%
    12:00 +28°C° 1 mm 1 mps 624 mmHg 55%
    13:00 +29°C° 1 mm 1 mps 623 mmHg 52%
    14:00 +27°C° 1.3 mm 1 mps 622 mmHg 59%
    15:00 +26°C° 1.3 mm 1 mps 622 mmHg 66%
    16:00 +24°C° 1.3 mm 1 mps 621 mmHg 73%
    17:00 +23°C° 1.1 mm 1 mps 621 mmHg 76%
    18:00 +22°C° 1.1 mm 1 mps 621 mmHg 79%
    19:00 +21°C° 1.1 mm 1 mps 621 mmHg 82%
    20:00 +20°C° 0.5 mm 1 mps 622 mmHg 84%
    21:00 +20°C° 0.5 mm 1 mps 622 mmHg 85%
    22:00 +19°C° 0.5 mm 1 mps 622 mmHg 87%
    23:00 +19°C° 0.6 mm 1 mps 622 mmHg 88%

    23 November, Friday

    Time Temperature Precipitation Wind Pressure Humidity
    00:00 +19°C° 0.6 mm 1 mps 622 mmHg 90%
    01:00 +19°C° 0.6 mm 1 mps 621 mmHg 92%
    02:00 +18°C° 0.2 mm 1 mps 621 mmHg 93%
    03:00 +18°C° 0.2 mm 1 mps 621 mmHg 93%
    04:00 +18°C° 0.2 mm 1 mps 621 mmHg 94%
    05:00 +19°C° 0.1 mm 1 mps 621 mmHg 92%
    06:00 +19°C° 0.1 mm 1 mps 622 mmHg 90%
    07:00 +20°C° 0.1 mm 1 mps 623 mmHg 87%
    08:00 +22°C° 0.6 mm 1 mps 624 mmHg 81%
    09:00 +23°C° 0.6 mm 1 mps 624 mmHg 74%
    10:00 +25°C° 0.6 mm 1 mps 625 mmHg 67%
    11:00 +25°C° 1.4 mm 1 mps 624 mmHg 69%
    12:00 +25°C° 1.4 mm 1 mps 623 mmHg 70%
    13:00 +24°C° 1.4 mm 1 mps 622 mmHg 71%
    14:00 +24°C° 0.9 mm 1 mps 622 mmHg 72%
    15:00 +24°C° 0.9 mm 1 mps 622 mmHg 72%
    16:00 +22°C° 0.9 mm 0 mps 622 mmHg 72%
    17:00 +20°C° 0 mm 0 mps 622 mmHg 76%
    18:00 +19°C° 0 mm 0 mps 622 mmHg 79%
    19:00 +18°C° 0 mm 0 mps 622 mmHg 83%
    20:00 +19°C° 0 mm 1 mps 622 mmHg 84%
    21:00 +19°C° 0 mm 1 mps 622 mmHg 85%
    22:00 +19°C° 0 mm 1 mps 622 mmHg 86%
    23:00 +18°C° 0 mm 1 mps 622 mmHg 88%

    24 November, Saturday

    Time Temperature Precipitation Wind Pressure Humidity
    00:00 +18°C° 0 mm 1 mps 621 mmHg 89%
    01:00 +18°C° 0 mm 1 mps 621 mmHg 90%
    02:00 +16°C° 0 mm 1 mps 621 mmHg 92%
    03:00 +16°C° 0 mm 1 mps 621 mmHg 93%
    04:00 +16°C° 0 mm 1 mps 620 mmHg 95%
    05:00 +18°C° 0 mm 1 mps 621 mmHg 91%
    06:00 +19°C° 0 mm 1 mps 622 mmHg 87%
    07:00 +20°C° 0 mm 1 mps 623 mmHg 83%
    08:00 +23°C° 0.1 mm 1 mps 624 mmHg 74%
    09:00 +26°C° 0.1 mm 1 mps 625 mmHg 65%
    10:00 +28°C° 0.1 mm 1 mps 625 mmHg 55%
    11:00 +28°C° 0.9 mm 1 mps 624 mmHg 56%
    12:00 +28°C° 0.9 mm 1 mps 624 mmHg 57%
    13:00 +28°C° 0.9 mm 1 mps 623 mmHg 58%
    14:00 +27°C° 0.6 mm 1 mps 623 mmHg 57%
    15:00 +27°C° 0.6 mm 1 mps 622 mmHg 56%
    16:00 +27°C° 0.6 mm 1 mps 622 mmHg 56%
    17:00 +25°C° 1.2 mm 1 mps 622 mmHg 64%
    18:00 +23°C° 1.2 mm 1 mps 621 mmHg 72%
    19:00 +21°C° 1.2 mm 1 mps 621 mmHg 80%
    20:00 +21°C° 1 mm 1 mps 622 mmHg 82%
    21:00 +20°C° 1 mm 1 mps 622 mmHg 84%
    22:00 +20°C° 1 mm 1 mps 622 mmHg 86%
    23:00 +19°C° 1.3 mm 1 mps 622 mmHg 89%
    Show more